Other Public Products
Issued by NWS Charleston, SC

Current Version | Previous Version | Graphics & Text | Print | Product List | Glossary On
Versions: 1 2 3 4 5 6 7 8 9 10 11 12 13 14 15 16 17 18 19 20 21 22 23 24 25 26 27 28 29 30 31 32 33 34 35 36 37 38 39 40 41 42 43 44 45 46 47 48 49 50
069 FPUS82 KCHS 171627 OPUCHS TEST...KCHS/KSAV Gateway Observations...TEST National Weather Service Charleston SC 1100 AM EST SUN DEC 17 2017 NOTE: "fair" indicates few or no clouds below 12,000 feet with no significant weather and/or obstructions to visibility. SCZ050-WAZ558-NCZ071-TXZ119-213-PAZ071-DCZ001-FLZ074-172-MI076- NYZ176-178-MAZ016-IL014-TNZ027-NJZ106-GAZ044-MD014-171700- ...Gateway Observations for Charleston International... CITY SKY/WX TMP DP RH WIND PRES REMARKS Chas Airport CLOUDY 53 38 56 VRB3 30.32F Seattle CLOUDY 43 42 97 S8 30.11F Charlotte PTSUNNY 44 31 60 S6 30.29F Dallas DFW CLOUDY 48 45 89 S8 30.07R Dallas Love CLOUDY 47 45 93 S5 30.08R Philladelphia CLOUDY 40 27 59 NE6 30.29S WCI 36 Wash National CLOUDY 44 30 57 CALM 30.28R Baltimore CLOUDY 45 30 55 CALM 30.27R Miami PTSUNNY 81 68 64 E14 30.24S Detroit CLOUDY 32 27 81 E9 30.19F HAZE WCI 24 Newark CLOUDY 35 23 61 NE5 30.29F WCI 31 Laguardia CLOUDY 35 21 56 NE5 30.29F WCI 31 J F K CLOUDY 34 23 64 NE6 30.30F WCI 29 Boston Logan MOSUNNY 25 4 40 NW14 30.27F WCI 13 Ft. Lauderdale PTSUNNY 78 68 71 SE16 30.24R Chicago O`Hare CLOUDY 37 33 85 NE7 30.06R FOG WCI 32 Chicago Midway CLOUDY 39 34 82 S8 30.07R WCI 33 Houston Bush FOG 50 50 100 CALM 30.11S VSB<1/4 Houston Hobby CLOUDY 52 52 100 E3 30.12R FOG Nashville CLOUDY 42 39 89 SE8 30.19F Atlanta CLOUDY 46 32 58 N3 30.29R $$ GAZ044-118-TXZ119-213-NCZ071-DCZ001-MDZ014-506-PAZ021-071-NJZ106- NYZ176-178-MAZ106-OHZ011-021-055-MIZ076-KYZ091-ILZ014-INZ047- MNZ060-ONZ431-171700- ...Gateway Observations for Savannah International... CITY SKY/WX TMP DP RH WIND PRES REMARKS Savannah Arpt SUNNY 58 38 47 E5 30.32S Atlanta CLOUDY 46 32 58 N3 30.29R Charlotte PTSUNNY 44 31 60 S6 30.29F Dallas DFW CLOUDY 48 45 89 S8 30.07R Houston Bush FOG 50 50 100 CALM 30.11S VSB<1/4 Wash National CLOUDY 44 30 57 CALM 30.28R Wash Dulles CLOUDY 41 30 65 SW5 30.27R Baltimore CLOUDY 45 30 55 CALM 30.27R Philadelphia CLOUDY 40 27 59 NE6 30.29S WCI 36 Newark CLOUDY 35 23 61 NE5 30.29F WCI 31 Laguardia CLOUDY 35 21 56 NE5 30.29F WCI 31 J F K CLOUDY 34 23 64 NE6 30.30F WCI 29 Boston MOSUNNY 25 4 40 NW14 30.27F WCI 13 Pittsburg CLOUDY 39 29 67 CALM 30.19F Akron CLOUDY 35 28 75 SW6 30.17F WCI 30 Cleveland CLOUDY 33 30 88 CALM 30.21F Cincinnati CLOUDY 42 32 67 S10 30.16R Columbus CLOUDY 39 31 73 S7 30.15F WCI 34 Detroit CLOUDY 32 27 81 E9 30.19F HAZE WCI 24 Chicago O`Hare CLOUDY 37 33 85 NE7 30.06R FOG WCI 32 Minneapolis CLOUDY 24 24 100 E5 30.09F FOG WCI 18 Indianapolis CLOUDY 42 31 64 S3 30.12R Toronto Canada PTSUNNY 12 5 73 N3 30.31S $$

USA.gov is the U.S. government's official web portal to all federal, state and local government web resources and services.